| time (UTC) | temp F | wind direction | speed knots | gust knots | rain 1hr in | rain 24hr in | rain mn in | humidity % | barometer mb |
| 20260906230108 | 97 | 118 | 3.5 | 9.6 | 0.00 | 0.00 | 0.00 | 39 | 1011.2 |
| 20260906224604 | 97 | 102 | 3.5 | 7.8 | 0.00 | 0.00 | 0.00 | 39 | 1011.2 |
| 20260906223103 | 97 | 111 | 3.5 | 8.7 | 0.00 | 0.00 | 0.00 | 40 | 1011.3 |
| 20260906221604 | 98 | 89 | 3.5 | 7.8 | 0.00 | 0.00 | 0.00 | 40 | 1011.3 |
| 20260906220104 | 98 | 110 | 7.0 | 10.4 | 0.00 | 0.00 | 0.00 | 40 | 1011.5 |
| 20260906214603 | 98 | 121 | 2.6 | 8.7 | 0.00 | 0.00 | 0.00 | 40 | 1011.5 |
| 20260906213103 | 98 | 61 | 4.3 | 8.7 | 0.00 | 0.00 | 0.00 | 40 | 1011.7 |
| 20260906211607 | 98 | 93 | 6.1 | 10.4 | 0.00 | 0.00 | 0.00 | 40 | 1011.9 |
| 20260906210114 | 97 | 117 | 5.2 | 7.8 | 0.00 | 0.00 | 0.00 | 40 | 1012.1 |
| 20260906204604 | 97 | 115 | 5.2 | 13.0 | 0.00 | 0.00 | 0.00 | 41 | 1012.3 |
| 20260906203105 | 97 | 76 | 2.6 | 11.3 | 0.00 | 0.00 | 0.00 | 41 | 1012.4 |
| 20260906201607 | 97 | 123 | 5.2 | 11.3 | 0.00 | 0.00 | 0.00 | 41 | 1012.5 |
| 20260906200119 | 97 | 67 | 3.5 | 12.2 | 0.00 | 0.00 | 0.00 | 41 | 1012.7 |
| 20260906194620 | 97 | 102 | 5.2 | 13.0 | 0.00 | 0.00 | 0.00 | 42 | 1012.7 |
| 20260906193104 | 97 | 92 | 1.7 | 10.4 | 0.00 | 0.00 | 0.00 | 42 | 1012.9 |
| 20260906191604 | 96 | 136 | 5.2 | 10.4 | 0.00 | 0.00 | 0.00 | 42 | 1013.1 |
| 20260906190145 | 96 | 74 | 6.1 | 10.4 | 0.00 | 0.00 | 0.00 | 46 | 1013.3 |
| 20260906184603 | 95 | 97 | 3.5 | 8.7 | 0.00 | 0.00 | 0.00 | 45 | 1013.4 |
| 20260906183111 | 95 | 106 | 5.2 | 11.3 | 0.00 | 0.00 | 0.00 | 45 | 1013.5 |
| 20260906181601 | 94 | 81 | 3.5 | 8.7 | 0.00 | 0.00 | 0.00 | 48 | 1013.8 |
| 20260906174607 | 94 | 86 | 3.5 | 9.6 | 0.00 | 0.00 | 0.00 | 47 | 1014.2 |
| 20260906173120 | 94 | 82 | 3.5 | 8.7 | 0.00 | 0.00 | 0.00 | 49 | 1014.6 |
| 20260906171603 | 93 | 107 | 5.2 | 11.3 | 0.00 | 0.00 | 0.00 | 49 | 1014.9 |
| 20260906170110 | 93 | 94 | 1.7 | 7.8 | 0.00 | 0.00 | 0.00 | 50 | 1015.1 |
| 20260906164608 | 92 | 107 | 0.9 | 5.2 | 0.00 | 0.00 | 0.00 | 52 | 1015.2 |
| 20260906163106 | 92 | 111 | 1.7 | 6.1 | 0.00 | 0.00 | 0.00 | 53 | 1015.2 |
| 20260906161600 | 91 | 341 | 2.6 | 7.0 | 0.00 | 0.00 | 0.00 | 57 | 1015.2 |
| 20260906154615 | 90 | 88 | 0.9 | 6.1 | 0.00 | 0.00 | 0.00 | 60 | 1015.2 |
| 20260906153104 | 88 | 93 | 3.5 | 6.1 | 0.00 | 0.00 | 0.00 | 64 | 1015.1 |
| 20260906151610 | 88 | 96 | 0.9 | 3.5 | 0.00 | 0.00 | 0.00 | 64 | 1015.0 |
| 20260906144603 | 84 | 129 | 1.7 | 5.2 | 0.00 | 0.00 | 0.00 | 70 | 1014.8 |
| 20260906143113 | 84 | 91 | 0.9 | 3.5 | 0.00 | 0.00 | 0.00 | 71 | 1014.8 |
| 20260906141603 | 82 | 177 | 1.7 | 3.5 | 0.00 | 0.00 | 0.00 | 74 | 1014.9 |
| 20260906134609 | 81 | 72 | 1.7 | 3.5 | 0.00 | 0.00 | 0.00 | 77 | 1014.8 |
| 20260906133119 | 80 | 113 | 2.6 | 5.2 | 0.00 | 0.00 | 0.00 | 80 | 1014.7 |
| 20260906131605 | 79 | 82 | 1.7 | 3.5 | 0.00 | 0.00 | 0.00 | 80 | 1014.6 |
| 20260906130115 | 78 | 117 | 0.9 | 2.6 | 0.00 | 0.00 | 0.00 | 80 | 1014.6 |
| 20260906124603 | 77 | 77 | 0.0 | 1.7 | 0.00 | 0.00 | 0.00 | 83 | 1014.5 |
| 20260906123104 | 76 | 113 | 0.9 | 1.7 | 0.00 | 0.00 | 0.00 | 85 | 1014.4 |
| 20260906121601 | 75 | 0 | 0.0 | 0.0 | 0.00 | 0.00 | 0.00 | 86 | 1014.2 |
| 20260906120107 | 75 | 0 | 0.0 | 1.7 | 0.00 | 0.00 | 0.00 | 86 | 1014.0 |
| 20260906114603 | 75 | 0 | 0.0 | 0.0 | 0.00 | 0.00 | 0.00 | 87 | 1013.8 |
| 20260906113103 | 75 | 0 | 0.0 | 1.7 | 0.00 | 0.00 | 0.00 | 86 | 1013.8 |
| 20260906111559 | 75 | 0 | 0.0 | 0.9 | 0.00 | 0.00 | 0.00 | 87 | 1013.7 |
| 20260906104602 | 75 | 223 | 0.9 | 1.7 | 0.00 | 0.00 | 0.00 | 86 | 1013.4 |
| 20260906103101 | 76 | 0 | 0.0 | 1.7 | 0.00 | 0.00 | 0.00 | 85 | 1013.3 |
| 20260906101600 | 76 | 0 | 0.0 | 0.0 | 0.00 | 0.00 | 0.00 | 84 | 1013.4 |
| 20260906100105 | 76 | 0 | 0.0 | 1.7 | 0.00 | 0.00 | 0.00 | 83 | 1013.2 |
| 20260906094609 | 76 | 0 | 0.0 | 1.7 | 0.00 | 0.00 | 0.00 | 83 | 1013.1 |
| 20260906093118 | 77 | 186 | 0.0 | 1.7 | 0.00 | 0.00 | 0.00 | 82 | 1013.0 |
| 20260906091603 | 78 | 0 | 0.0 | 1.7 | 0.00 | 0.00 | 0.00 | 79 | 1013.0 |
| 20260906090137 | 79 | 0 | 0.0 | 1.7 | 0.00 | 0.00 | 0.00 | 78 | 1012.9 |
| 20260906084625 | 78 | 162 | 0.9 | 1.7 | 0.00 | 0.00 | 0.00 | 79 | 1012.7 |
| 20260906083103 | 78 | 218 | 0.0 | 1.7 | 0.00 | 0.00 | 0.00 | 78 | 1012.8 |
| 20260906081603 | 79 | 294 | 0.0 | 2.6 | 0.00 | 0.00 | 0.00 | 78 | 1012.8 |
| 20260906080108 | 80 | 181 | 1.7 | 4.3 | 0.00 | 0.00 | 0.00 | 75 | 1013.0 |
| 20260906074603 | 80 | 161 | 0.9 | 4.3 | 0.00 | 0.00 | 0.00 | 75 | 1013.2 |
| 20260906073101 | 81 | 111 | 2.6 | 5.2 | 0.00 | 0.00 | 0.00 | 74 | 1013.1 |
| 20260906071603 | 81 | 171 | 2.6 | 6.1 | 0.00 | 0.00 | 0.00 | 74 | 1013.0 |
| 20260906070105 | 81 | 113 | 2.6 | 5.2 | 0.00 | 0.00 | 0.00 | 73 | 1013.2 |
| 20260906064602 | 82 | 106 | 1.7 | 5.2 | 0.00 | 0.00 | 0.00 | 73 | 1013.4 |
| 20260906063104 | 82 | 142 | 1.7 | 3.5 | 0.00 | 0.00 | 0.00 | 73 | 1013.5 |
| 20260906061607 | 82 | 139 | 0.9 | 3.5 | 0.00 | 0.00 | 0.00 | 72 | 1013.5 |
| 20260906054606 | 82 | 171 | 0.0 | 1.7 | 0.00 | 0.00 | 0.00 | 72 | 1013.4 |
| 20260906053119 | 82 | 167 | 0.9 | 2.6 | 0.00 | 0.00 | 0.00 | 71 | 1013.4 |
| 20260906051603 | 83 | 162 | 0.9 | 3.5 | 0.00 | 0.00 | 0.00 | 71 | 1013.5 |
| 20260906050106 | 83 | 171 | 0.9 | 4.3 | 0.00 | 0.00 | 0.00 | 68 | 1013.5 |
| 20260906044621 | 84 | 168 | 0.9 | 3.5 | 0.00 | 0.00 | 0.00 | 68 | 1013.4 |
| 20260906043105 | 84 | 0 | 0.9 | 3.5 | 0.00 | 0.00 | 0.00 | 69 | 1013.3 |
| 20260906041604 | 84 | 125 | 0.9 | 3.5 | 0.00 | 0.00 | 0.00 | 69 | 1013.2 |
| 20260906040108 | 85 | 165 | 0.9 | 5.2 | 0.00 | 0.00 | 0.00 | 69 | 1013.1 |
| 20260906034608 | 85 | 122 | 1.7 | 6.1 | 0.00 | 0.00 | 0.00 | 67 | 1013.2 |
| 20260906033105 | 86 | 123 | 3.5 | 7.8 | 0.00 | 0.00 | 0.00 | 66 | 1013.3 |
| 20260906031607 | 86 | 133 | 3.5 | 7.8 | 0.00 | 0.00 | 0.00 | 65 | 1013.3 |
| 20260906030107 | 87 | 117 | 3.5 | 8.7 | 0.00 | 0.00 | 0.00 | 64 | 1013.2 |
| 20260906024624 | 87 | 126 | 5.2 | 8.7 | 0.00 | 0.00 | 0.00 | 63 | 1013.0 |
| 20260906023106 | 87 | 110 | 5.2 | 8.7 | 0.00 | 0.00 | 0.00 | 60 | 1012.7 |
| 20260906021605 | 88 | 130 | 6.1 | 9.6 | 0.00 | 0.00 | 0.00 | 59 | 1012.6 |
| 20260906020106 | 89 | 101 | 7.8 | 12.2 | 0.00 | 0.00 | 0.00 | 55 | 1012.4 |
| 20260906014606 | 90 | 92 | 7.8 | 14.8 | 0.00 | 0.00 | 0.00 | 52 | 1012.1 |
| 20260906013106 | 92 | 108 | 3.5 | 7.8 | 0.00 | 0.00 | 0.00 | 49 | 1011.6 |
| 20260906011604 | 92 | 140 | 4.3 | 7.0 | 0.00 | 0.00 | 0.00 | 47 | 1011.4 |
| 20260906010132 | 93 | 121 | 5.2 | 10.4 | 0.00 | 0.00 | 0.00 | 46 | 1011.2 |
| 20260906004608 | 94 | 117 | 5.2 | 11.3 | 0.00 | 0.00 | 0.00 | 45 | 1011.4 |
| 20260906003107 | 95 | 112 | 2.6 | 7.8 | 0.00 | 0.00 | 0.00 | 42 | 1011.3 |
| 20260906001615 | 95 | 119 | 3.5 | 6.1 | 0.00 | 0.00 | 0.00 | 42 | 1011.2 |
| 20260906000104 | 96 | 126 | 1.7 | 7.0 | 0.00 | 0.00 | 0.00 | 41 | 1011.1 |
| 20260905234608 | 96 | 83 | 4.3 | 7.8 | 0.00 | 0.00 | 0.00 | 41 | 1011.1 |
| 20260905233106 | 96 | 122 | 5.2 | 8.7 | 0.00 | 0.00 | 0.00 | 40 | 1011.0 |
| 20260905231604 | 97 | 65 | 5.2 | 7.0 | 0.00 | 0.00 | 0.00 | 38 | 1011.0 |